Regional Weather Roundup
Issued by NWS Charleston, SC

Current Version | Previous Version | Graphics & Text | Print | Product List | Glossary On
Versions: 1 2 3 4 5 6 7 8 9 10 11 12 13 14 15 16 17 18 19 20 21 22 23 24 25 26 27 28 29 30 31 32 33 34 35 36 37 38 39 40 41 42 43 44 45 46 47 48 49 50
000 ASUS42 KCHS 311725 RWRCHS REGIONAL WEATHER ROUNDUP NATIONAL WEATHER SERVICE CHARLESTON SC 100 PM EDT THU JUL 31 2014 NOTE: "FAIR" INDICATES FEW OR NO CLOUDS BELOW 12,000 FEET WITH NO SIGNIFICANT WEATHER AND/OR OBSTRUCTIONS TO VISIBILITY. NOT ALL STATIONS ARE QUALITY CONTROLLED BY THE NATIONAL WEATHER SERVICE. USE DATA WITH CAUTION...ESPECIALLY DEWPOINT OBSERVATIONS. SCZ027-030-031-034>040-042>050-311800- ...SOUTH CAROLINA... CITY SKY/WX TMP DP RH WIND PRES REMARKS N CHARLESTON TSTM 79 73 83 CALM 30.05R FOG WATERFRONT PRK N/A 84 N/A N/A E21G28 N/A FORT JOHNSON NOT AVBL MOUNT PLEASANT FAIR 81 73 78 NE3 30.05S JOHNS ISLAND DRIZZLE 81 73 78 E13G21 30.03S PINOPOLIS N/A 88 72 58 E3 29.99R HX 94 MONCKS CORNER N/A 82 75 78 E5 30.05S SUMMERVILLE RAIN 72 72 100 S3 30.08R BEAUFORT MCAS CLOUDY 80 73 79 E12 30.03S BEAUFORT ARPT PTSUNNY 84 77 79 NE12G17 30.02S HX 94 HILTON HEAD IS PTSUNNY 86 70 58 SE5 30.03R HX 90 GEORGETOWN NOT AVBL WALTERBORO CLOUDY 73 N/A N/A E8 30.08F ORANGEBURG CLOUDY 80 71 74 E7 30.07S BARNWELL PTSUNNY 81 72 74 E6 30.06S AIKEN PTSUNNY 82 72 69 E10 30.09F MANNING PTSUNNY 81 81 100 E3 30.07S HX 91 KINGSTREE NOT AVBL COLUMBIA CLOUDY 86 68 54 E12 30.06F SUMTER CLOUDY 84 71 64 E12 30.07S FLORENCE PTSUNNY 85 70 60 VRB7 30.09F MYRTLE BEACH MOSUNNY 86 72 62 E18 30.08F HX 92 N MYRTLE BEACH PTSUNNY 85 71 63 E14G22 30.09S HX 90 $$ GAZ063-065-086>088-099>101-113>116-118-119-134-136>141-150-311800- ...GEORGIA... CITY SKY/WX TMP DP RH WIND PRES REMARKS SAVANNAH ARPT CLOUDY 89 71 55 SE8 30.00S HX 95 HUNTER AAF PTSUNNY 88 73 61 SE9 29.98S HX 96 FORT STEWART PTSUNNY 89 70 52 SW6 29.98F HX 94 STATESBORO NOT AVBL SYLVANIA CLOUDY 81 77 87 E8 30.03F CLAXTON FAIR 86 77 74 N6 30.01S HX 97 THOMSON CLOUDY 84 76 79 NE3 30.09F HX 93 AUGUSTA-BUSH LGT RAIN 80 72 76 E9 30.04F AUGUSTA-DANIEL CLOUDY 84 70 62 E9 30.05F SWAINSBORO RAIN 86 77 74 E8 30.03S HX 97 VIDALIA N/A 84 73 70 NE6 30.01F HX 91 ALMA MOSUNNY 92 63 38 VRB3 30.00F HX 93 WAYCROSS MOSUNNY 95 65 36 SW6 29.99F HX 97 JESUP PTSUNNY 91 70 49 W6 29.99F HX 97 BRUNSWICK MOSUNNY 91 61 35 SW8 30.00S HX 91 SAINT SIMONS MOSUNNY 88 72 58 SE10 30.00S HX 94 $$ SCZ027-028-034-036>038-045-046-048>050-GAZ119-141-311800- ...LAKE AND SUPPLEMENTAL COASTAL OBSERVATIONS... STATION/POSITION TIME TEMP WIND PRES WAVE SWELL AIR SEA DIR/SP/G HT/PER HT/PER/DIR (UTC) (F) (DEG/KT/KT) (MB) (FT/S) (FT/S/D) UPR LAKE MARION NOT AVBL WINYAH BAY 1700 83 90/ 14 1018.0S LAKE MURRAY 1600 79 90/ 10/ 12 1018.3S ACE BASIN NERRS 1700 74 10/ 3 1017.0S FORT PULASKI 1700 85 160/ 6/ 10 1016.3F SAPELO ISLAND 1700 90 150/ 5 1017.0S $$ ANZ835-935-AMZ111-154-330-350-352-354-374-450-454-472-311800- ...C-MAN AND BUOY OBSERVATIONS... STATION/POSITION TIME TEMP WIND PRES WAVE SWELL AIR SEA DIR/SP/G HT/PER HT/PER/DIR (UTC) (F) (DEG/KT/KT) (MB) (FT/S) (FT/S/D) FOLLY BEACH CMAN 1700 82 90/ 19/ 22 1017.2F BUOY 41004 1700 83 83 80/ 17/ 21 1016.2F 4/ 5 2/ 8 BUOY 41008 1700 84 86 190/ 6/ 8 1016.0S 2/ 6 2/ 60/ 6 5E ST. MARYS GA 1700 87 N/A 2/ 5 FRYING PAN BUOY NOT AVBL BUOY 41025 1700 VRB 10/ 14 1020.2S 3/ 7 3/130/ 7 CAPE LOOKOUT NC 1700 80 70/ 12/ 13 1020.1R BUOY 41002 1552 79 81 190/ 8/ 10 1018.9S 4/ 6 3/ 70/ 6 BUOY 41010 1700 81 84 120/ 6/ 16 1016.8S 2/ 5 2/180/ 5 BUOY 41012 NOT AVBL ST AUGUSTINE FL 1700 84 80/ 5/ 6 1016.8F CAPERS NEARSHORE 1600 82 90/ 19/ 21 N/A FRIPP NEARSHORE NOT AVBL $$

USA.gov is the U.S. government's official web portal to all federal, state and local government web resources and services.